GW4413 Weather Reports


Display with metric or nautical units.
time (UTC)temp
F
wind
direction
speed
MPH
gust
MPH
rain 1hr
in
rain 24hr
in
rain mn
in
humidity
%
barometer
mb
20260905203016 63 61 1.0 2.0 0.00 0.00 0.00 70 1018.1
20260905202505 63 67 0.0 2.0 0.00 0.00 0.00 71 1018.2
20260905202004 63 67 1.0 3.0 0.00 0.00 0.00 71 1018.2
20260905201512 63 67 1.0 3.0 0.00 0.00 0.00 71 1018.2
20260905201003 63 43 0.0 0.0 0.00 0.00 0.00 72 1018.1
20260905200506 63 43 0.0 2.0 0.00 0.00 0.00 72 1018.1
20260905200014 63 43 0.0 2.0 0.00 0.00 0.00 73 1018.1
20260905195503 63 43 0.0 2.0 0.00 0.00 0.00 73 1018.1
20260905195004 62 55 1.0 2.0 0.00 0.00 0.00 74 1018.1
20260905194513 62 55 0.0 2.0 0.00 0.00 0.00 74 1018.1
20260905194003 62 55 0.0 3.0 0.00 0.00 0.00 75 1018.1
20260905193503 62 55 0.0 3.0 0.00 0.00 0.00 75 1018.2
20260905193013 62 55 1.0 2.0 0.00 0.00 0.00 76 1018.3
20260905192503 61 55 0.0 2.0 0.00 0.00 0.00 75 1018.3
20260905192007 61 55 0.0 2.0 0.00 0.00 0.00 76 1018.3
20260905191517 61 55 0.0 2.0 0.00 0.00 0.00 76 1018.3
20260905191006 61 55 0.0 2.0 0.00 0.00 0.00 77 1018.4
20260905190510 61 55 0.0 2.0 0.00 0.00 0.00 76 1018.4
20260905190014 61 55 1.0 2.0 0.00 0.00 0.00 77 1018.5
20260905185506 61 55 1.0 3.0 0.00 0.00 0.00 77 1018.5
20260905185007 61 55 0.0 3.0 0.00 0.00 0.00 76 1018.5
20260905184521 61 46 0.0 2.0 0.00 0.00 0.00 77 1018.6
20260905184003 61 53 0.0 2.0 0.00 0.00 0.00 77 1018.6
20260905183511 60 53 1.0 2.0 0.00 0.00 0.00 77 1018.6
20260905183016 60 33 0.0 2.0 0.00 0.00 0.00 77 1018.6
20260905182505 60 33 0.0 2.0 0.00 0.00 0.00 77 1018.6
20260905182005 60 30 0.0 2.0 0.00 0.00 0.00 78 1018.7
20260905181516 60 30 0.0 2.0 0.00 0.00 0.00 78 1018.7
20260905181008 60 30 0.0 2.0 0.00 0.00 0.00 78 1018.9
20260905180508 60 51 0.0 1.0 0.00 0.00 0.00 78 1018.8
20260905180014 60 31 0.0 0.0 0.00 0.00 0.00 79 1018.8
20260905175506 60 31 0.0 0.0 0.00 0.00 0.00 79 1018.8
20260905175010 59 31 0.0 0.0 0.00 0.00 0.00 78 1018.8
20260905174517 59 31 0.0 0.0 0.00 0.00 0.00 79 1018.8
20260905174010 59 85 0.0 0.0 0.00 0.00 0.00 79 1018.8
20260905173510 59 161 0.0 0.0 0.00 0.00 0.00 79 1018.8
20260905173017 59 161 0.0 0.0 0.00 0.00 0.00 79 1018.8
20260905172508 59 161 0.0 0.0 0.00 0.00 0.00 79 1018.8
20260905172008 59 103 0.0 0.0 0.00 0.00 0.00 79 1018.8
20260905171529 59 103 0.0 0.0 0.00 0.00 0.00 80 1018.8
20260905171010 59 103 0.0 0.0 0.00 0.00 0.00 80 1018.8
20260905170508 59 103 0.0 1.0 0.00 0.00 0.00 80 1018.8
20260905170018 59 103 0.0 1.0 0.00 0.00 0.00 80 1018.7
20260905165509 58 103 0.0 2.0 0.00 0.00 0.00 80 1018.7
20260905165009 58 103 0.0 2.0 0.00 0.00 0.00 81 1018.7
20260905164523 58 103 0.0 2.0 0.00 0.00 0.00 81 1018.6
20260905164013 58 317 0.0 0.0 0.00 0.00 0.00 82 1018.6
20260905163508 57 317 0.0 0.0 0.00 0.00 0.00 83 1018.5
20260905163020 57 317 0.0 0.0 0.00 0.00 0.00 84 1018.4
20260905162509 57 317 0.0 0.0 0.00 0.00 0.00 84 1018.4
20260905162010 56 317 0.0 0.0 0.00 0.00 0.00 84 1018.4
20260905161521 56 317 0.0 0.0 0.00 0.00 0.00 85 1018.3
20260905161015 56 317 0.0 0.0 0.00 0.00 0.00 85 1018.3
20260905160511 56 317 0.0 0.0 0.00 0.00 0.00 85 1018.4
20260905160026 56 317 0.0 1.0 0.00 0.00 0.00 85 1018.4
20260905155512 55 317 0.0 1.0 0.00 0.00 0.00 85 1018.5
20260905155009 55 317 0.0 0.0 0.00 0.00 0.00 86 1018.5
20260905154519 55 317 0.0 0.0 0.00 0.00 0.00 86 1018.5
20260905154010 55 317 0.0 1.0 0.00 0.00 0.00 86 1018.5
20260905153512 55 317 0.0 1.0 0.00 0.00 0.00 86 1018.6
20260905153022 55 317 0.0 0.0 0.00 0.00 0.00 87 1018.6
20260905152512 55 317 0.0 0.0 0.00 0.00 0.00 87 1018.6
20260905152010 55 317 0.0 0.0 0.00 0.00 0.00 88 1018.6
20260905151518 55 317 0.0 0.0 0.00 0.00 0.00 88 1018.6
20260905151012 54 317 0.0 0.0 0.00 0.00 0.00 88 1018.5
20260905150511 54 317 0.0 0.0 0.00 0.00 0.00 89 1018.5
20260905150018 54 317 0.0 0.0 0.00 0.00 0.00 89 1018.5
20260905145514 54 317 0.0 0.0 0.00 0.00 0.00 90 1018.5
20260905145012 54 317 0.0 0.0 0.00 0.00 0.00 89 1018.5
20260905144520 54 317 0.0 0.0 0.00 0.00 0.00 89 1018.4
20260905144009 54 317 0.0 0.0 0.00 0.00 0.00 89 1018.4
20260905143512 54 317 0.0 0.0 0.00 0.01 0.00 89 1018.3
20260905143022 53 317 0.0 0.0 0.00 0.01 0.00 89 1018.3
20260905142513 53 317 0.0 0.0 0.00 0.01 0.00 89 1018.2
20260905142013 53 317 0.0 0.0 0.00 0.02 0.00 89 1018.1
20260905141517 53 317 0.0 0.0 0.00 0.03 0.00 89 1018.1
20260905141016 53 317 0.0 0.0 0.00 0.04 0.00 89 1018.1
20260905140519 53 317 0.0 0.0 0.00 0.04 0.00 89 1018.1
20260905140018 53 317 0.0 0.0 0.00 0.05 0.00 89 1018.1
20260905135511 53 317 0.0 0.0 0.00 0.05 0.00 89 1018.1
20260905135012 53 317 0.0 0.0 0.00 0.06 0.00 89 1018.1
20260905134540 53 317 0.0 0.0 0.00 0.06 0.00 89 1018.1
20260905134013 53 317 0.0 0.0 0.00 0.06 0.00 89 1018.1
20260905133511 53 317 0.0 0.0 0.00 0.06 0.00 89 1018.1
20260905133029 53 317 0.0 0.0 0.00 0.06 0.00 89 1018.1
20260905132512 53 317 0.0 0.0 0.00 0.06 0.00 89 1018.0
20260905132013 53 317 0.0 0.0 0.00 0.06 0.00 89 1018.1
20260905131531 53 317 0.0 0.0 0.00 0.06 0.00 89 1018.1
20260905131014 53 317 0.0 0.0 0.00 0.06 0.00 89 1018.1
20260905130514 53 317 0.0 0.0 0.00 0.06 0.00 89 1018.1
20260905130029 53 317 0.0 0.0 0.00 0.06 0.00 89 1018.1
20260905125515 53 317 0.0 0.0 0.00 0.06 0.00 89 1018.1
20260905125017 53 317 0.0 0.0 0.00 0.06 0.00 89 1018.0
20260905124528 53 317 0.0 0.0 0.00 0.06 0.00 89 1017.9
20260905124013 53 317 0.0 0.0 0.00 0.06 0.00 89 1017.9
20260905123514 53 317 0.0 0.0 0.00 0.06 0.00 89 1017.8
20260905123032 53 317 0.0 0.0 0.00 0.07 0.00 89 1017.7
20260905122517 53 317 0.0 0.0 0.00 0.07 0.00 89 1017.7
20260905122012 53 317 0.0 0.0 0.00 0.07 0.00 89 1017.7
20260905121518 53 317 0.0 0.0 0.00 0.07 0.00 89 1017.7
20260905121006 53 317 0.0 0.0 0.00 0.07 0.00 89 1017.7
20260905120512 53 317 0.0 0.0 0.00 0.07 0.00 89 1017.7
20260905120025 53 317 0.0 0.0 0.00 0.07 0.00 89 1017.6
20260905115504 53 317 0.0 0.0 0.00 0.07 0.00 89 1017.6
20260905115013 53 317 0.0 0.0 0.00 0.07 0.00 89 1017.6
20260905114520 53 317 0.0 0.0 0.00 0.07 0.00 89 1017.6
20260905114003 53 317 0.0 0.0 0.00 0.07 0.00 89 1017.6
20260905113513 53 317 0.0 0.0 0.00 0.07 0.00 89 1017.5
20260905113020 53 317 0.0 0.0 0.00 0.07 0.00 89 1017.5
20260905112506 53 317 0.0 0.0 0.00 0.07 0.00 90 1017.5
20260905112013 53 317 0.0 0.0 0.00 0.07 0.00 90 1017.5
20260905111520 53 317 0.0 0.0 0.00 0.07 0.00 90 1017.5
20260905111010 53 317 0.0 0.0 0.00 0.07 0.00 90 1017.5
20260905110514 53 317 0.0 0.0 0.00 0.07 0.00 89 1017.5
20260905110020 53 317 0.0 0.0 0.00 0.07 0.00 89 1017.6
20260905105505 53 317 0.0 0.0 0.00 0.07 0.00 89 1017.5
20260905105015 53 317 0.0 0.0 0.00 0.07 0.00 89 1017.4
20260905104520 53 317 0.0 0.0 0.00 0.07 0.00 89 1017.5
20260905104004 53 317 0.0 0.0 0.00 0.07 0.00 90 1017.4
20260905103512 53 317 0.0 0.0 0.00 0.07 0.00 89 1017.5
20260905103029 53 317 0.0 0.0 0.00 0.07 0.00 90 1017.6
20260905102504 53 317 0.0 0.0 0.00 0.07 0.00 90 1017.6
20260905102014 53 317 0.0 0.0 0.00 0.07 0.00 90 1017.6
20260905101518 53 317 0.0 0.0 0.00 0.07 0.00 89 1017.5
20260905101004 53 317 0.0 0.0 0.00 0.07 0.00 90 1017.4
20260905100515 53 317 0.0 0.0 0.00 0.07 0.00 90 1017.4
20260905100018 53 317 0.0 0.0 0.00 0.07 0.00 89 1017.4
20260905095508 53 317 0.0 0.0 0.00 0.07 0.00 89 1017.4
20260905095013 53 317 0.0 0.0 0.00 0.07 0.00 89 1017.4
20260905094522 54 317 0.0 0.0 0.00 0.07 0.00 89 1017.4
20260905094003 54 317 0.0 0.0 0.00 0.07 0.00 89 1017.4
20260905093516 54 317 0.0 0.0 0.00 0.07 0.00 89 1017.5
20260905093020 54 317 0.0 0.0 0.00 0.07 0.00 89 1017.4
20260905092505 54 317 0.0 0.0 0.00 0.07 0.00 89 1017.4
20260905092016 54 317 0.0 0.0 0.00 0.07 0.00 88 1017.5
20260905091531 54 317 0.0 0.0 0.00 0.07 0.00 88 1017.4
20260905091017 54 317 0.0 1.0 0.00 0.07 0.00 88 1017.4
20260905090515 54 317 0.0 1.0 0.00 0.07 0.00 88 1017.4
20260905090037 54 317 0.0 0.0 0.00 0.07 0.00 87 1017.3
20260905085521 54 317 0.0 0.0 0.00 0.07 0.00 87 1017.3
20260905085015 55 317 0.0 0.0 0.00 0.07 0.00 87 1017.2
20260905084533 55 317 0.0 0.0 0.00 0.07 0.00 87 1017.2
20260905084018 55 317 0.0 0.0 0.00 0.07 0.00 86 1017.2
20260905083516 55 317 0.0 1.0 0.00 0.07 0.00 86 1017.1
20260905083033 55 317 0.0 1.0 0.00 0.07 0.00 86 1017.1
20260905082516 55 317 0.0 1.0 0.00 0.07 0.00 86 1017.1
20260905082013 55 317 0.0 1.0 0.00 0.07 0.00 86 1017.1
20260905081530 55 317 0.0 1.0 0.00 0.07 0.00 86 1017.1
20260905081015 55 317 0.0 1.0 0.00 0.07 0.00 86 1017.1
20260905080513 56 317 0.0 0.0 0.00 0.07 0.00 86 1017.1
20260905080040 56 317 0.0 0.0 0.00 0.07 0.00 86 1017.0
20260905075518 56 317 0.0 0.0 0.00 0.07 0.00 86 1017.1
20260905075011 56 317 0.0 0.0 0.00 0.07 0.00 86 1017.1
20260905074532 56 317 0.0 0.0 0.00 0.07 0.00 85 1017.0
20260905074015 56 317 0.0 0.0 0.00 0.07 0.00 85 1017.0
20260905073517 56 317 0.0 0.0 0.00 0.07 0.00 85 1017.0
20260905073034 56 317 0.0 0.0 0.00 0.07 0.00 85 1016.9
20260905072516 56 317 0.0 0.0 0.00 0.07 0.00 85 1017.0
20260905072015 56 317 0.0 0.0 0.00 0.07 0.00 84 1017.0
20260905071531 56 317 0.0 0.0 0.00 0.07 0.00 84 1017.0
20260905071021 56 317 0.0 0.0 0.00 0.07 0.00 84 1017.0
20260905070514 56 317 0.0 0.0 0.00 0.07 0.00 84 1017.0
20260905070036 56 317 0.0 0.0 0.00 0.07 0.00 83 1017.0
20260905065517 56 317 0.0 0.0 0.00 0.07 0.07 83 1016.9
20260905065012 56 317 0.0 0.0 0.00 0.07 0.07 84 1016.9
20260905064533 56 317 0.0 0.0 0.00 0.07 0.07 83 1016.8
20260905064019 56 317 0.0 0.0 0.00 0.07 0.07 83 1016.8
20260905063514 56 317 0.0 0.0 0.00 0.07 0.07 83 1016.7
20260905063032 56 317 0.0 0.0 0.00 0.07 0.07 83 1016.7
20260905062517 56 317 0.0 0.0 0.00 0.07 0.07 83 1016.7
20260905062015 56 317 0.0 0.0 0.00 0.07 0.07 83 1016.7
20260905061520 56 317 0.0 0.0 0.00 0.07 0.07 83 1016.7
20260905061003 56 317 0.0 0.0 0.00 0.07 0.07 82 1016.7
20260905060503 56 317 0.0 0.0 0.00 0.07 0.07 83 1016.7
20260905060024 56 317 0.0 0.0 0.00 0.07 0.07 82 1016.7
20260905055504 57 317 0.0 0.0 0.00 0.07 0.07 82 1016.7
20260905055003 57 317 0.0 0.0 0.00 0.07 0.07 82 1016.7
20260905054521 57 317 0.0 0.0 0.00 0.07 0.07 82 1016.7
20260905054003 57 317 0.0 0.0 0.00 0.07 0.07 82 1016.6
20260905053503 57 317 0.0 0.0 0.00 0.07 0.07 81 1016.6
20260905053017 57 317 0.0 0.0 0.00 0.07 0.07 81 1016.6
20260905052505 57 317 0.0 0.0 0.00 0.07 0.07 81 1016.7
20260905052006 57 317 0.0 0.0 0.00 0.07 0.07 81 1016.6
20260905051519 58 317 0.0 0.0 0.00 0.07 0.07 81 1016.6
20260905051005 58 317 0.0 0.0 0.00 0.07 0.07 80 1016.6
20260905050504 58 317 0.0 0.0 0.00 0.07 0.07 80 1016.6
20260905050020 58 317 0.0 0.0 0.00 0.07 0.07 80 1016.6
20260905045503 58 317 0.0 0.0 0.00 0.07 0.07 80 1016.6
20260905045003 58 317 0.0 0.0 0.00 0.07 0.07 79 1016.6
20260905044525 58 317 0.0 0.0 0.00 0.07 0.07 78 1016.6
20260905044004 58 317 0.0 0.0 0.00 0.07 0.07 78 1016.7
20260905043502 58 317 0.0 0.0 0.00 0.07 0.07 78 1016.7
20260905043019 58 317 0.0 0.0 0.00 0.07 0.07 78 1016.7
20260905042503 58 317 0.0 0.0 0.00 0.07 0.07 78 1016.6
20260905042017 58 317 0.0 0.0 0.00 0.07 0.07 77 1016.7
20260905041522 58 317 0.0 0.0 0.00 0.07 0.07 77 1016.6
20260905041003 58 317 0.0 0.0 0.00 0.07 0.07 77 1016.6
20260905040514 58 317 0.0 0.0 0.00 0.07 0.07 77 1016.6
20260905040026 58 317 0.0 0.0 0.00 0.07 0.07 77 1016.5
20260905035506 59 317 0.0 0.0 0.00 0.07 0.07 77 1016.5
20260905035017 59 317 0.0 0.0 0.00 0.07 0.07 76 1016.5
20260905034527 59 317 0.0 0.0 0.00 0.07 0.07 76 1016.4
20260905034003 59 317 0.0 0.0 0.00 0.07 0.07 75 1016.4
20260905033515 59 317 0.0 0.0 0.00 0.07 0.07 76 1016.4
20260905033022 59 317 0.0 0.0 0.00 0.07 0.07 74 1016.4
20260905032503 59 317 0.0 0.0 0.00 0.07 0.07 74 1016.4
20260905032019 60 317 0.0 0.0 0.00 0.07 0.07 74 1016.4
20260905031528 60 317 0.0 0.0 0.00 0.07 0.07 74 1016.3
20260905031006 60 317 0.0 0.0 0.00 0.07 0.07 74 1016.3
20260905030514 60 317 0.0 0.0 0.00 0.07 0.07 74 1016.3
20260905030030 60 317 0.0 0.0 0.00 0.07 0.07 73 1016.2
20260905025503 61 317 0.0 0.0 0.00 0.07 0.07 72 1016.2
20260905025016 61 317 0.0 0.0 0.00 0.07 0.07 73 1016.1
20260905024523 61 317 0.0 0.0 0.00 0.07 0.07 72 1016.1
20260905024006 61 317 0.0 0.0 0.00 0.07 0.07 72 1016.0
20260905023513 61 317 0.0 0.0 0.00 0.07 0.07 72 1016.0
20260905023023 62 317 0.0 0.0 0.00 0.07 0.07 72 1016.0
20260905022505 62 317 0.0 0.0 0.00 0.07 0.07 73 1016.0
20260905022013 62 317 0.0 0.0 0.00 0.07 0.07 73 1016.1
20260905021527 62 317 0.0 0.0 0.00 0.07 0.07 72 1016.1
20260905021007 62 317 0.0 0.0 0.00 0.07 0.07 72 1016.0
20260905020513 62 317 0.0 0.0 0.00 0.07 0.07 71 1016.0
20260905020038 62 317 0.0 0.0 0.00 0.07 0.07 71 1016.0
20260905015506 62 317 0.0 0.0 0.00 0.07 0.07 72 1015.9
20260905015016 62 317 0.0 0.0 0.00 0.07 0.07 72 1016.0
20260905014522 62 317 0.0 0.0 0.00 0.07 0.07 71 1016.0
20260905014003 62 317 0.0 0.0 0.00 0.07 0.07 71 1015.9
20260905013513 62 317 0.0 1.0 0.00 0.07 0.07 71 1015.9
20260905013031 62 317 0.0 1.0 0.00 0.07 0.07 71 1015.9
20260905012506 63 317 0.0 1.0 0.00 0.07 0.07 71 1015.8
20260905012016 62 317 0.0 1.0 0.00 0.07 0.07 70 1015.7
20260905011531 63 317 0.0 1.0 0.00 0.07 0.07 69 1015.7
20260905011004 63 317 0.0 1.0 0.00 0.07 0.07 69 1015.6
20260905010516 63 317 0.0 1.0 0.00 0.07 0.07 69 1015.5
20260905010023 63 317 0.0 1.0 0.00 0.07 0.07 69 1015.5
20260905005506 63 317 0.0 1.0 0.00 0.07 0.07 69 1015.4
20260905005016 63 317 0.0 1.0 0.00 0.07 0.07 69 1015.4
20260905004523 63 317 0.0 2.0 0.00 0.07 0.07 69 1015.3
20260905004004 63 317 0.0 2.0 0.00 0.07 0.07 68 1015.3
20260905003515 63 317 0.0 2.0 0.00 0.07 0.07 67 1015.2
20260905003030 63 317 0.0 1.0 0.00 0.07 0.07 66 1015.2
20260905002507 63 317 0.0 1.0 0.00 0.07 0.07 67 1015.1
20260905002015 63 317 0.0 2.0 0.00 0.07 0.07 67 1015.0
20260905001524 63 317 0.0 2.0 0.00 0.07 0.07 67 1015.1
20260905001003 63 317 0.0 2.0 0.00 0.07 0.07 68 1015.1
20260905000514 63 317 0.0 2.0 0.00 0.07 0.07 68 1015.0
20260905000025 63 317 0.0 2.0 0.00 0.07 0.07 67 1015.0
20260904235516 63 317 0.0 3.0 0.00 0.07 0.07 66 1015.0
20260904235016 63 317 1.0 3.0 0.00 0.07 0.07 68 1015.1
20260904234523 63 317 0.0 2.0 0.00 0.07 0.07 67 1015.1
20260904234017 63 317 0.0 2.0 0.00 0.07 0.07 68 1015.0
20260904233514 63 333 1.0 2.0 0.00 0.07 0.07 67 1015.1
20260904233023 63 333 0.0 2.0 0.00 0.07 0.07 67 1015.0
20260904232518 63 316 0.0 2.0 0.00 0.07 0.07 68 1015.0
20260904232016 63 31 0.0 2.0 0.00 0.07 0.07 68 1015.0
20260904231524 63 31 1.0 2.0 0.00 0.07 0.07 68 1015.0
20260904231018 63 348 0.0 2.0 0.00 0.07 0.07 69 1014.9
20260904230517 63 348 1.0 2.0 0.00 0.07 0.07 68 1015.0
20260904230025 63 348 0.0 2.0 0.00 0.07 0.07 70 1015.0
20260904225522 63 348 0.0 2.0 0.00 0.07 0.07 68 1015.0
20260904225016 63 305 1.0 2.0 0.00 0.07 0.07 69 1014.9
20260904224523 63 347 0.0 3.0 0.00 0.07 0.07 68 1014.8
20260904224015 64 347 1.0 3.0 0.00 0.07 0.07 67 1014.8
20260904223516 64 15 0.0 2.0 0.00 0.07 0.07 68 1014.7
20260904223024 64 342 0.0 1.0 0.00 0.07 0.07 67 1014.7
20260904222515 64 246 0.0 0.0 0.00 0.07 0.07 67 1014.7
20260904222015 64 331 0.0 2.0 0.00 0.07 0.07 67 1014.7
20260904221525 64 331 0.0 2.0 0.00 0.07 0.07 67 1014.7
20260904221017 64 292 0.0 3.0 0.00 0.07 0.07 66 1014.7
20260904220514 64 292 1.0 3.0 0.00 0.07 0.07 68 1014.8
20260904220027 64 360 0.0 2.0 0.00 0.07 0.07 67 1014.7
20260904215518 64 276 0.0 2.0 0.00 0.07 0.07 66 1014.8
20260904215014 64 291 0.0 2.0 0.00 0.07 0.07 69 1014.8
20260904214523 64 36 0.0 2.0 0.00 0.07 0.07 67 1014.8
20260904214015 64 343 0.0 3.0 0.00 0.07 0.07 68 1014.8
20260904213515 63 360 1.0 3.0 0.00 0.07 0.07 68 1014.9
20260904213025 63 333 0.0 2.0 0.00 0.07 0.07 69 1014.8
20260904212519 63 302 1.0 2.0 0.00 0.07 0.07 69 1014.8
20260904212016 63 267 1.0 2.0 0.00 0.07 0.07 71 1014.8
20260904211524 63 5 0.0 2.0 0.00 0.07 0.07 73 1014.8
20260904211006 62 5 0.0 3.0 0.00 0.07 0.07 71 1014.8
20260904210502 62 5 1.0 3.0 0.00 0.07 0.07 74 1014.8
20260904210033 62 329 0.0 2.0 0.00 0.07 0.07 75 1014.8
20260904205512 62 322 1.0 2.0 0.00 0.07 0.07 76 1014.7
20260904205004 61 30 0.0 2.0 0.00 0.07 0.07 76 1014.7
20260904204525 61 56 0.0 2.0 0.00 0.07 0.07 78 1014.8
20260904204008 61 36 0.0 2.0 0.00 0.07 0.07 77 1014.7
20260904203503 61 67 0.0 2.0 0.00 0.07 0.07 77 1014.7